Wind_Speed
42 40 38 36 36 35 35 38 38 39 37 38 37 37 37 35 33 33 32 32 30 29 29 29 28 27 25 24 26 28 28 27 25 25 26 30 29 28 28 28 29 34 34
44 43 41 39 40 38 38 39 40 40 40 39 37 34 33 35 36 35 34 34 32 32 32 32 31 30 26 25 26 28 29 29 27 26 26 30 30 26 29 25 34 35 36
44 42 41 39 40 40 42 41 42 43 43 41 39 36 35 34 34 36 37 38 37 36 35 32 30 29 27 28 30 30 31 31 27 27 28 30 30 29 32 23 38 35 33
46 46 41 41 40 42 42 44 45 46 45 44 42 38 39 39 39 38 39 37 37 40 39 37 35 32 31 30 33 35 33 32 31 29 27 31 30 32 30 29 35 32 33
45 44 43 43 44 44 45 46 48 49 47 45 41 42 43 41 41 40 40 41 41 39 37 36 36 35 34 36 39 39 39 37 36 35 27 30 33 35 33 32 31 32 30
45 44 46 47 46 47 47 51 51 50 49 47 45 43 44 41 41 42 39 38 40 40 40 41 39 39 40 43 46 43 43 41 40 38 32 32 35 22 31 37 29 34 30
47 48 47 46 48 47 49 50 50 48 49 48 46 47 45 44 43 43 42 39 38 38 39 39 39 40 39 41 43 44 42 42 42 40 37 33 29 31 36 35 32 29 30
49 49 48 48 49 50 47 47 49 50 50 49 46 45 46 45 46 46 45 42 42 40 41 40 41 40 41 41 43 46 44 42 42 42 39 36 36 38 38 36 33 31 27
50 50 50 50 50 47 45 47 48 51 52 51 50 45 44 46 47 48 49 47 47 43 43 43 42 43 43 41 38 41 40 42 40 39 39 37 38 42 39 33 36 38 27
51 53 53 51 50 48 48 49 52 51 50 50 52 51 49 47 46 48 51 50 50 47 44 45 44 43 38 34 34 34 32 33 35 35 36 38 39 41 42 41 34 32 29
45 48 50 51 52 50 50 51 50 49 50 51 55 55 55 51 48 49 55 54 51 49 47 42 39 34 35 35 33 30 31 28 29 31 35 36 33 34 39 42 34 28 28
47 47 49 51 50 53 55 54 50 48 50 51 54 53 51 49 48 51 53 56 50 47 42 35 30 26 32 29 29 31 31 29 30 30 36 34 33 32 34 38 38 32 25
47 47 47 48 49 49 53 57 57 52 53 51 36 55 54 52 49 48 55 56 51 48 39 37 34 32 34 29 30 27 33 36 38 38 35 36 31 33 34 34 37 36 31
55 54 55 51 52 54 54 55 58 58 56 58 61 66 62 54 57 59 56 57 59 52 49 46 40 36 38 34 34 39 40 40 39 42 42 38 37 33 39 38 35 39 27
58 58 59 60 60 61 59 59 59 61 63 63 64 66 68 66 65 65 66 67 69 64 60 52 44 37 42 33 24 57 57 49 37 40 46 42 36 36 38 41 39 41 42
61 63 65 65 66 64 62 59 63 66 67 67 66 68 71 71 70 71 70 68 66 67 64 60 54 52 46 43 38 52 41 55 51 36 46 46 44 47 39 39 39 43 46
61 65 65 69 69 67 63 62 65 67 67 70 71 73 74 75 75 75 73 71 69 68 67 63 64 63 63 55 56 60 53 38 51 47 42 45 40 41 46 46 46 45 47
63 65 67 67 68 69 69 65 64 64 64 66 70 74 77 78 79 76 75 75 73 71 69 69 68 67 70 67 70 62 60 56 50 41 48 45 43 34 35 40 45 52 50
68 67 66 69 70 68 68 66 66 66 66 67 69 71 73 75 76 77 76 75 77 75 74 74 72 72 71 74 74 73 71 73 64 58 48 47 50 49 33 37 46 47 51
71 72 77 77 76 70 70 69 68 70 69 71 72 74 74 75 75 74 74 76 77 76 79 78 77 76 76 77 81 81 77 75 72 70 68 64 61 53 60 40 50 49 47
77 81 82 80 77 76 75 73 72 74 74 73 74 79 76 78 77 77 79 81 82 85 83 78 79 85 82 84 81 85 85 81 80 76 78 75 65 65 62 56 52 52 51
78 79 80 81 79 78 79 78 79 78 81 83 81 81 81 81 79 77 78 79 83 85 86 88 87 84 84 85 84 89 90 89 87 83 79 83 80 72 69 72 63 63 59
81 82 82 80 80 79 80 80 81 81 82 85 86 85 85 86 85 84 82 81 81 82 83 88 89 93 96 99 98 93 91 92 93 95 88 86 86 80 79 81 67 70 67
90 90 88 88 89 88 87 87 88 89 89 89 89 90 90 90 89 91 90 91 93 92 91 89 89 92 96 101 109 110 109 106 104 101 101 97 92 91 88 85 85 79 74
95 94 95 96 96 95 94 94 94 95 95 96 96 92 91 91 92 92 92 93 94 97 101 102 99 97 97 99 103 109 104 107 110 108 108 108 106 98 94 94 93 96 85
101 99 98 99 99 99 98 97 97 96 96 96 95 96 98 98 95 96 96 96 98 98 98 97 99 101 101 100 103 107 110 107 103 105 103 108 109 110 103 101 98 97 91
Wind_Direction
286 288 292 289 292 293 291 290 292 292 289 294 299 298 290 287 287 289 285 286 282 280 283 286 287 287 289 291 295 297 300 301 307 314 313 312 310 306 310 319 327 328 322
288 286 288 286 288 288 287 290 289 290 291 292 294 296 297 295 291 288 288 287 285 280 281 281 286 285 281 281 287 292 295 298 301 310 313 312 303 310 318 319 331 329 325
291 288 288 285 284 281 283 288 289 288 287 288 292 293 293 295 295 292 290 285 285 285 284 284 288 287 283 282 286 288 291 293 302 304 306 309 303 301 318 315 318 328 326
291 290 285 289 283 283 283 285 288 284 287 287 289 290 292 291 291 291 291 287 286 284 283 282 283 282 282 284 288 289 289 293 296 296 303 306 303 298 303 315 317 330 331
287 283 282 286 282 281 282 285 287 285 284 287 286 284 289 289 289 293 295 291 289 286 284 284 287 286 281 281 284 286 286 288 288 295 295 297 296 302 298 305 319 324 328
283 281 281 282 279 283 280 288 286 286 288 289 291 283 286 286 288 288 292 292 289 287 288 287 287 285 284 285 285 284 285 282 284 286 290 291 303 292 290 307 307 313 315
281 281 282 282 278 280 281 284 284 286 289 290 288 286 283 286 286 282 287 286 288 286 288 288 287 286 285 284 284 283 287 281 282 282 283 282 281 283 282 304 299 307 308
283 281 278 279 278 280 283 284 285 288 292 287 288 286 283 285 288 283 282 283 284 282 283 285 285 285 281 285 288 291 289 286 280 280 284 279 274 273 283 297 295 300 301
286 277 274 277 282 282 286 285 282 285 285 283 281 281 284 286 288 286 283 281 282 281 280 286 282 286 287 292 296 292 289 285 282 281 279 272 274 270 277 281 284 293 289
279 279 279 278 278 280 282 280 277 281 283 281 282 280 277 279 283 284 284 284 283 282 283 285 287 286 293 286 297 299 301 296 283 277 272 276 272 269 272 273 276 285 287
287 281 279 281 281 281 280 277 278 279 278 280 280 279 278 278 280 282 283 284 282 283 286 287 283 283 287 291 292 290 302 310 301 289 284 287 286 283 274 269 273 277 294
283 284 281 281 282 283 281 277 275 275 278 278 280 281 279 281 284 280 281 281 279 281 284 288 286 280 280 282 289 291 299 307 309 315 312 299 282 269 273 271 268 278 282
279 279 282 282 281 278 277 278 276 272 271 271 268 283 277 273 276 275 274 275 274 276 276 280 274 270 275 274 290 289 301 305 310 300 304 298 287 269 269 275 266 269 271
281 283 281 281 284 286 281 273 269 270 268 270 266 266 270 271 273 269 267 266 269 273 271 270 271 266 269 281 295 296 296 298 303 301 299 297 302 279 268 270 274 266 263
283 284 284 287 288 291 292 281 271 265 265 265 267 268 269 270 271 269 267 265 268 269 267 263 260 257 262 263 268 290 287 274 286 290 290 289 288 289 269 270 267 266 261
283 285 287 292 295 299 295 284 276 273 269 266 264 263 265 267 268 267 267 267 265 264 263 261 257 248 245 247 244 251 277 263 274 272 281 278 278 278 265 265 269 268 265
287 290 292 294 296 296 298 288 276 273 272 269 267 266 264 263 263 264 263 264 265 264 260 257 254 252 247 240 238 227 247 254 242 254 238 266 264 271 275 265 269 275 275
288 290 294 298 298 299 301 292 282 276 275 273 272 269 267 266 265 264 264 265 264 262 259 257 255 252 250 248 245 242 243 234 248 239 248 248 237 242 263 272 273 272 277
291 292 292 295 298 301 301 294 285 278 276 275 274 273 270 271 270 266 265 265 265 264 261 257 256 252 249 247 246 245 244 244 245 238 232 242 248 239 243 272 265 258 264
295 293 294 296 297 296 296 294 289 283 279 277 276 276 273 272 270 267 265 262 263 265 265 260 258 255 252 247 245 248 249 251 248 248 229 238 238 236 245 243 260 251 251
290 291 293 295 295 294 291 292 289 288 281 278 277 275 273 272 270 269 268 264 261 258 258 260 263 260 253 248 243 246 248 251 253 254 239 240 241 239 241 234 244 242 245
290 289 291 293 293 291 290 288 288 286 283 282 277 275 272 271 270 269 267 265 264 262 259 259 259 257 258 255 249 247 251 250 249 255 254 245 246 244 239 233 235 243 242
287 290 289 288 288 286 285 283 283 283 282 281 279 276 273 271 270 268 267 266 265 264 263 261 259 258 259 255 254 254 253 253 251 253 253 252 248 248 240 234 229 245 237
290 288 287 287 288 288 288 285 284 284 283 282 282 278 275 272 271 269 267 266 264 264 264 262 259 258 258 258 257 253 253 252 251 251 254 255 253 250 239 238 237 238 239
291 290 290 289 289 288 287 286 285 284 284 283 282 280 275 275 272 270 269 268 265 263 262 262 260 259 257 256 257 257 254 254 251 250 249 251 250 249 241 239 239 240 238
289 290 290 289 289 288 286 285 284 282 282 281 279 277 277 276 273 268 267 267 266 266 264 263 261 260 259 258 256 255 256 254 250 246 242 248 249 246 237 236 239 240 240
Height
10859 10858 10857 10856 10855 10854 10852 10848 10846 10845 10844 10843 10841 10840 10838 10838 10838 10837 10836 10836 10836 10836 10835 10835 10835 10834 10833 10832 10828 10825 10822 10821 10821 10820 10817 10814 10811 10807 10803 10799 10796 10793 10790
10852 10851 10850 10850 10849 10847 10845 10843 10840 10839 10838 10837 10836 10834 10832 10831 10831 10832 10832 10831 10830 10830 10829 10829 10829 10829 10828 10826 10823 10821 10819 10818 10819 10818 10815 10811 10807 10804 10800 10796 10792 10789 10786
10843 10844 10843 10842 10841 10839 10837 10835 10834 10832 10831 10831 10830 10829 10827 10826 10825 10825 10825 10825 10824 10824 10824 10824 10824 10824 10823 10821 10817 10815 10815 10815 10816 10814 10810 10805 10801 10798 10796 10794 10790 10786 10784
10835 10836 10835 10835 10835 10832 10830 10828 10826 10824 10824 10824 10824 10824 10822 10821 10820 10819 10818 10817 10817 10818 10818 10818 10818 10818 10818 10815 10812 10811 10810 10812 10811 10807 10807 10801 10797 10794 10793 10791 10788 10784 10780
10833 10829 10828 10828 10828 10826 10823 10821 10819 10817 10816 10816 10817 10817 10817 10816 10814 10813 10812 10810 10810 10810 10810 10810 10811 10812 10813 10810 10806 10805 10805 10806 10805 10803 10802 10799 10794 10792 10789 10787 10786 10783 10779
10822 10821 10822 10821 10820 10819 10817 10814 10812 10810 10810 10810 10809 10809 10809 10809 10809 10808 10807 10806 10804 10803 10804 10803 10804 10805 10806 10804 10800 10798 10799 10798 10798 10796 10796 10795 10792 10787 10786 10783 10781 10781 10779
10816 10815 10813 10811 10810 10809 10808 10806 10804 10803 10803 10803 10802 10801 10802 10801 10800 10801 10801 10800 10799 10798 10797 10797 10797 10798 10799 10796 10792 10790 10790 10790 10788 10789 10789 10790 10788 10786 10783 10779 10778 10778 10776
10808 10807 10804 10802 10801 10800 10800 10800 10799 10797 10794 10792 10791 10791 10791 10793 10794 10793 10792 10793 10792 10791 10791 10791 10790 10790 10791 10790 10786 10783 10782 10783 10781 10781 10782 10783 10781 10779 10777 10776 10773 10775 10773
10797 10794 10793 10794 10794 10794 10794 10794 10789 10783 10781 10780 10780 10779 10780 10781 10783 10785 10783 10783 10783 10783 10784 10784 10783 10784 10785 10784 10778 10773 10771 10772 10773 10771 10773 10774 10773 10771 10771 10771 10770 10771 10769
10788 10784 10783 10787 10786 10786 10786 10782 10776 10774 10775 10773 10772 10771 10770 10771 10771 10772 10774 10773 10773 10773 10776 10777 10777 10777 10777 10775 10772 10767 10763 10761 10763 10764 10762 10763 10767 10767 10764 10765 10765 10764 10764
10778 10776 10776 10773 10775 10777 10777 10770 10768 10767 10765 10765 10762 10761 10761 10761 10762 10761 10764 10763 10763 10764 10766 10767 10768 10768 10768 10767 10766 10762 10757 10755 10753 10756 10757 10758 10756 10758 10758 10757 10756 10755 10756
10770 10767 10766 10764 10765 10765 10762 10759 10759 10759 10759 10756 10753 10752 10751 10752 10751 10750 10752 10754 10752 10754 10757 10758 10759 10758 10756 10758 10758 10756 10751 10750 10748 10748 10748 10748 10749 10749 10748 10746 10747 10748 10749
10759 10757 10755 10753 10751 10752 10751 10747 10746 10748 10747 10747 10745 10747 10739 10739 10739 10739 10741 10744 10744 10744 10746 10747 10749 10750 10750 10750 10750 10749 10746 10743 10742 10739 10737 10740 10741 10742 10740 10739 10741 10742 10742
10746 10746 10743 10741 10739 10738 10737 10732 10733 10733 10734 10732 10733 10730 10726 10724 10724 10726 10731 10733 10730 10731 10734 10737 10737 10740 10740 10743 10741 10741 10741 10739 10735 10733 10730 10730 10732 10736 10735 10732 10733 10735 10736
10732 10731 10729 10727 10725 10724 10722 10718 10716 10717 10718 10717 10714 10712 10711 10710 10709 10710 10715 10719 10718 10718 10719 10724 10727 10730 10732 10736 10736 10739 10736 10734 10734 10731 10725 10724 10721 10727 10728 10727 10727 10728 10729
10718 10716 10714 10711 10708 10706 10705 10703 10700 10698 10699 10699 10698 10696 10695 10695 10696 10697 10699 10703 10702 10702 10705 10709 10713 10714 10716 10721 10720 10710 10732 10725 10723 10726 10723 10720 10716 10719 10720 10722 10722 10722 10724
10708 10702 10702 10699 10695 10691 10687 10685 10682 10682 10683 10682 10681 10681 10681 10681 10680 10683 10685 10683 10682 10685 10691 10696 10695 10694 10698 10701 10699 10705 10707 10705 10709 10716 10727 10717 10712 10708 10710 10712 10714 10714 10715
10696 10687 10684 10681 10678 10675 10672 10669 10664 10666 10667 10667 10665 10665 10664 10664 10665 10666 10666 10666 10666 10667 10672 10675 10678 10679 10680 10682 10682 10681 10679 10690 10701 10701 10702 10705 10700 10697 10699 10699 10703 10705 10706
10678 10671 10667 10663 10659 10656 10654 10650 10648 10646 10647 10646 10644 10642 10643 10643 10644 10645 10647 10648 10647 10648 10653 10657 10657 10659 10660 10662 10662 10668 10671 10676 10676 10681 10686 10688 10688 10684 10687 10693 10694 10694 10695
10659 10654 10649 10645 10642 10639 10636 10634 10632 10629 10631 10625 10625 10620 10621 10621 10623 10624 10627 10628 10626 10627 10630 10633 10635 10638 10638 10640 10640 10639 10646 10650 10654 10659 10663 10668 10671 10672 10675 10678 10685 10685 10685
10643 10637 10631 10627 10625 10620 10615 10614 10612 10613 10611 10607 10608 10598 10602 10598 10602 10603 10603 10601 10602 10604 10609 10611 10614 10613 10616 10616 10617 10620 10621 10626 10633 10637 10642 10645 10651 10653 10660 10665 10669 10674 10672
10624 10619 10614 10608 10605 10602 10597 10593 10591 10590 10588 10586 10585 10581 10579 10577 10580 10580 10578 10576 10577 10578 10583 10586 10591 10589 10591 10594 10595 10594 10599 10603 10609 10611 10618 10623 10627 10633 10641 10647 10651 10659 10660
10602 10598 10593 10588 10584 10579 10575 10571 10567 10566 10564 10561 10558 10556 10556 10553 10555 10555 10554 10553 10552 10553 10556 10559 10563 10564 10563 10564 10567 10567 10572 10578 10580 10584 10591 10596 10604 10612 10620 10627 10634 10639 10645
10577 10574 10569 10564 10559 10554 10550 10546 10542 10540 10538 10535 10533 10530 10528 10527 10529 10527 10527 10526 10526 10527 10529 10531 10535 10538 10539 10538 10533 10543 10542 10547 10555 10560 10566 10573 10578 10586 10598 10603 10610 10617 10622
10550 10548 10543 10538 10534 10530 10525 10521 10516 10513 10509 10506 10504 10501 10499 10498 10498 10498 10497 10498 10498 10497 10497 10501 10503 10507 10510 10513 10511 10507 10509 10514 10515 10533 10544 10541 10547 10560 10572 10579 10588 10595 10601
10528 10525 10517 10512 10507 10502 10496 10493 10489 10485 10482 10478 10474 10471 10468 10467 10466 10466 10465 10466 10465 10465 10465 10468 10470 10472 10477 10481 10484 10484 10484 10482 10482 10491 10507 10514 10519 10533 10544 10557 10565 10571 10578